{"data":{"norad_id":67755,"epoch":"2026-05-23T04:22:03.990432Z","epoch_age_seconds":228131,"freshness":"STALE","line1":"1 67755U 25313BF  26143.18199063  .00026042  00000+0  57751-3 0  9998","line2":"2 67755  97.3901 220.2671 0005377 105.9823 254.2018 15.43709463 17968","mean_motion":15.43709463,"eccentricity":0.0005377,"inclination_deg":97.3901,"raan_deg":220.2671,"arg_perigee_deg":105.9823,"mean_anomaly_deg":254.2018,"bstar":0.00057751,"rev_number":1796,"period_min":93.281801693535,"perigee_km":431.5091845663,"apogee_km":438.83621781896,"semimajor_km":6813.3097011926,"source":"CELESTRAK","updated_at":"2026-05-25T13:38:07.232094Z"}}